EW8474 Weather Reports


time (UTC)temp
C
wind
direction
speed
KPH
gust
KPH
rain 1hr
cm
rain 24hr
cm
rain mn
cm
humidity
%
barometer
mb
20260503211556 21 271 6.4 16.1 0.00 0.00 0.00 57 1010.3
20260503210052 21 297 9.7 16.1 0.00 0.00 0.00 57 1010.4
20260503204549 20 278 6.4 20.9 0.00 0.00 0.00 60 1010.6
20260503203049 20 301 11.3 19.3 0.00 0.00 0.00 58 1010.7
20260503201549 20 318 9.7 19.3 0.00 0.00 0.00 58 1010.7
20260503200044 20 300 9.7 20.9 0.00 0.00 0.00 60 1011.0
20260503194545 20 277 8.0 17.7 0.00 0.00 0.00 62 1011.3
20260503193035 19 347 8.0 17.7 0.00 0.00 0.00 64 1011.5
20260503191533 19 295 6.4 17.7 0.00 0.00 0.00 65 1011.6
20260503190040 20 287 8.0 14.5 0.00 0.00 0.00 65 1011.7
20260503184528 19 300 3.2 14.5 0.00 0.00 0.00 69 1011.9
20260503183031 18 276 3.2 12.9 0.00 0.00 0.00 72 1012.0
20260503181541 18 302 4.8 11.3 0.00 0.00 0.00 71 1012.1
20260503180038 18 294 6.4 16.1 0.00 0.00 0.00 72 1012.2
20260503174519 17 306 3.2 9.7 0.00 0.00 0.00 74 1012.4
20260503173016 17 246 4.8 11.3 0.00 0.00 0.00 75 1012.4
20260503171522 17 290 1.6 11.3 0.00 0.00 0.00 76 1012.6
20260503081520 12 349 0.0 0.0 0.00 0.00 0.00 83 1012.9
20260503071509 13 349 0.0 0.0 0.00 0.00 0.00 79 1012.6
20260503054502 15 251 0.0 0.0 0.00 0.00 0.00 75 1012.5
20260503053008 15 251 0.0 1.6 0.00 0.00 0.00 74 1012.6
20260503051502 16 275 1.6 6.4 0.00 0.00 0.00 73 1012.5
20260503050002 15 309 0.0 4.8 0.00 0.00 0.00 76 1012.4
20260503044501 15 285 0.0 4.8 0.00 0.00 0.00 76 1012.3
20260503043101 16 272 0.0 4.8 0.00 0.00 0.00 76 1012.2
20260503041613 16 309 3.2 9.7 0.00 0.00 0.00 74 1012.0
20260503040100 16 308 3.2 9.7 0.00 0.00 0.00 71 1011.8
20260503034601 16 301 4.8 9.7 0.00 0.00 0.00 69 1011.6
20260503033116 17 313 0.0 8.0 0.00 0.00 0.00 70 1011.5
20260503031558 17 251 3.2 9.7 0.00 0.00 0.00 68 1011.4
20260503030106 18 292 1.6 8.0 0.00 0.00 0.00 66 1011.2
20260503024602 18 284 3.2 9.7 0.00 0.00 0.00 64 1011.2
20260503023057 18 278 3.2 8.0 0.00 0.00 0.00 65 1011.2
20260503021559 18 315 3.2 12.9 0.00 0.00 0.00 66 1011.2
20260503014555 20 312 4.8 14.5 0.00 0.00 0.00 57 1011.2
20260503013050 20 277 1.6 9.7 0.00 0.00 0.00 64 1011.3
20260503011601 19 295 8.0 14.5 0.00 0.00 0.00 64 1011.4
20260503010049 19 262 8.0 19.3 0.00 0.00 0.00 65 1011.5
20260503004550 19 283 8.0 17.7 0.00 0.00 0.00 65 1011.5
20260503003046 20 308 8.0 16.1 0.00 0.00 0.00 63 1011.5
20260503001546 20 295 3.2 16.1 0.00 0.00 0.00 64 1011.6
20260503000044 20 295 6.4 19.3 0.00 0.00 0.00 62 1011.7
20260502234550 20 348 4.8 20.9 0.00 0.00 0.00 62 1011.8
20260502233039 20 304 6.4 19.3 0.00 0.00 0.00 63 1012.1
20260502231538 18 311 6.4 17.7 0.00 0.00 0.00 68 1012.2
20260502230032 18 295 8.0 17.7 0.00 0.00 0.00 68 1012.4
20260502224530 18 306 9.7 19.3 0.00 0.00 0.00 69 1012.6
20260502223028 18 292 9.7 20.9 0.00 0.00 0.00 69 1012.9
20260502221526 18 264 6.4 17.7 0.00 0.00 0.00 70 1013.1
20260502220027 18 295 6.4 20.9 0.00 0.00 0.00 71 1013.2
20260502214520 18 255 6.4 17.7 0.00 0.00 0.00 70 1013.4
20260502213027 18 275 8.0 20.9 0.00 0.00 0.00 69 1013.5